This is the latest recevied weather packets stored in our database for station/object IZ1RFL-3. If no packets are shown the sender has not sent any weather packets the latest 10 day(s).
| Time | Temp. | Humidity | Pressure | Rain* | Wind** | Luminosity | Snow |
|---|---|---|---|---|---|---|---|
| 1777852865 | 14.44° C | 55% | 1017.6 hPa | - | - | - | - |
| 1777851965 | 15.56° C | 50% | 1017.8 hPa | - | - | - | - |
| 1777851065 | 15.56° C | 50% | 1017.8 hPa | - | - | - | - |
| 1777850165 | 16.11° C | 48% | 1017.9 hPa | - | - | - | - |
| 1777849265 | 15.56° C | 50% | 1018.1 hPa | - | - | - | - |
| 1777848365 | 16.11° C | 45% | 1018 hPa | - | - | - | - |
| 1777847465 | 16.11° C | 44% | 1018 hPa | - | - | - | - |
| 1777846565 | 16.11° C | 42% | 1018.2 hPa | - | - | - | - |
| 1777845665 | 16.11° C | 44% | 1018.1 hPa | - | - | - | - |
| 1777844765 | 16.11° C | 47% | 1018.1 hPa | - | - | - | - |
| 1777843865 | 16.11° C | 44% | 1018 hPa | - | - | - | - |
| 1777842965 | 16.67° C | 42% | 1018 hPa | - | - | - | - |
| 1777842065 | 16.67° C | 42% | 1017.8 hPa | - | - | - | - |
| 1777841165 | 16.67° C | 46% | 1017.8 hPa | - | - | - | - |
| 1777840265 | 16.67° C | 43% | 1017.8 hPa | - | - | - | - |
| 1777839365 | 17.22° C | 44% | 1017.7 hPa | - | - | - | - |
| 1777838465 | 17.22° C | 44% | 1017.7 hPa | - | - | - | - |
| 1777837565 | 17.22° C | 43% | 1017.5 hPa | - | - | - | - |
| 1777836665 | 17.78° C | 42% | 1017.6 hPa | - | - | - | - |
| 1777835764 | 17.78° C | 42% | 1017.4 hPa | - | - | - | - |
| 1777834864 | 17.78° C | 40% | 1017.3 hPa | - | - | - | - |
| 1777833965 | 17.78° C | 40% | 1017.3 hPa | - | - | - | - |
| 1777833065 | 17.78° C | 40% | 1017.2 hPa | - | - | - | - |
| 1777832164 | 18.33° C | 39% | 1017.1 hPa | - | - | - | - |
| 1777831265 | 18.89° C | 40% | 1017.2 hPa | - | - | - | - |
* Rain since midnight (hover to see other rain measurements)
** Current wind speed in m/s (hover to see current wind gust speed)